Weather Roundup
Issued by NWS Chicago, IL

Home | Current Version | Previous Version | Graphics & Text | Print | Product List | Glossary On
Versions: 1 2 3 4 5 6 7 8 9 10 11 12 13 14 15 16 17 18 19 20 21 22 23 24 25 26 27 28 29 30 31 32 33 34 35 36 37 38 39 40 41 42 43 44 45 46 47 48 49 50
000
NZUS59 KLOT 300906
HRRLOT

CHICAGO AREA WEATHER ROUNDUP
NATIONAL WEATHER SERVICE CHICAGO/ROMEOVILLE IL
300 AM CST FRI JAN 30 2015

NOTE: "FAIR" INDICATES FEW OR NO CLOUDS BELOW 12,000 FEET WITH NO
SIGNIFICANT WEATHER AND/OR OBSTRUCTIONS TO VISIBILITY.

* THESE STATIONS ARE NOT UNDER NWS QUALITY CONTROL. THEY ALSO MAY NOT
  REPORT WEATHER SUCH AS PRECIPITATION OR FOG.

ILZ005-006-012>014-019>023-301000-
NORTHEAST ILLINOIS

CITY           SKY/WX    TMP DP  RH WIND       PRES   REMARKS
OHARE          MOCLDY    25   8  48 N15       30.39R WCI  13
MIDWAY         MOCLDY    28  10  46 N13       30.39R WCI  17
AURORA         PTCLDY    22  15  75 N9        30.41R WCI  12
LANSING*       CLOUDY    28  13  54 N13G20    30.38R WCI  17
JOLIET*        PTCLDY    26  17  67 N7        30.41R WCI  18
WAUKEGAN       PTCLDY    23   9  55 NW9G17    30.39R WCI  13
DUPAGE AIRPORT CLOUDY    24  12  60 N10       30.39R WCI  14
WHEELING       CLOUDY    24   9  52 N9        30.41R WCI  14
KANKAKEE*      PTCLDY    28  21  74 N10       30.39R WCI  19
MORRIS*        CLEAR     25  19  80 N5        30.41R WCI  19
LEWIS AIRPORT* MOCLDY    26  14  59 N13       30.40R WCI  15
NORTHERLY IS     N/A     27  11  51 NW12        N/A  WCI  17
$$

WIZ051-052-058>065-066-070>072-301000-
SOUTHEAST WISCONSIN

CITY           SKY/WX    TMP DP  RH WIND       PRES   REMARKS
MILWAUKEE      PTCLDY    23  10  57 N16       30.40R WCI  10
KENOSHA*       CLEAR     22  10  60 NW9       30.39R WCI  12
RACINE*        CLOUDY    24  11  57 NW10      30.41R WCI  14
BURLINGTON     CLOUDY    22   8  55 N6        30.40R WCI  14
WAUKESHA       MOCLDY    19   9  63 N9        30.40S WCI   9
$$

INZ001>003-010>013-019-020-301000-
NORTHWEST INDIANA

CITY           SKY/WX    TMP DP  RH WIND       PRES   REMARKS
GARY*          CLOUDY    29   9  43 N21G29    30.39R WCI  16
MICHIGAN CITY* NOT AVBL
RENSSELAER*    NOT AVBL
VALPARAISO     CLOUDY    27  14  58 NW17G26   30.34R WCI  14
$$

LMZ740>746-301000-
SOUTHERN LAKE MICHIGAN

STATION/POSITION TIME  SKY/WX   TEMP WIND        PRES    VSBY
                                AIR  DIR/SP/G
                 (UTC)          (F)  (DEG/KT/KT) (MB)    (MI)
HARRISON CRIB    0900            27  340/ 27/ 32   N/A
BURNHAM HARBOR   0900            27  320/ 11/ 19   N/A
CALUMET HARBOR   0900            27  330/ 19/ 24   N/A
BURNS HARBOR     NOT AVBL
MICHIGAN CITY    0900            28  330/ 30/ 34   N/A
$$

ABBREVIATIONS USED IN REMARKS
   TC - TEMPERATURE IN CELSIUS
  WCI - WIND CHILL INDEX
   HX - HEAT INDEX
  VSB - VISIBILITY
$$


USA.gov is the U.S. government's official web portal to all federal, state and local government web resources and services.